Location: The Saddle
(36.8333°N, 80.3417°W)
Time: 00:35:51
(UTC-05:00)

A-11 Canister half - Pass Details

Date: 12 December 2023
Orbit: 1526 x 1682 km, 47.3° (Epoch: 01 March)

Event Time Altitude Azimuth Distance (km) Brightness Sun altitude
Rises 22:41:34 0° 301° (WNW) 4,933 12.0 -65.6°
Reaches altitude 10° 22:44:47 10° 303° (WNW) 3,936 11.4 -66.2°
Enters shadow 22:44:47 10° 303° (WNW) 3,932 11.4 -66.2°
